Find Starlink 31115

NORAD ID: 58729 Int'l Des: 2024-005 Owner: SPXS Country: US Constellation: starlink operational
LEOCIRCULAR

当前视图

正在加载3D地球...

About Starlink 31115

Starlink 31115 (NORAD 58729) is a starlink constellation satellite (v2 mini) launched Jan 7, 2024 by SPXS of US. It operates in LEO, CIRCULAR orbit with a mass of 730.00 kg.

关于 Starlink 31115

正在加载描述...

即将过境

Passes for default location (London). Set your location on the main map for personalized predictions.

高度历史

Loading altitude history...

两行轨道根数

1 58729U 24005B 26167.32347441 -.00000052 00000-0 76416-5 0 9999
2 58729 43.0017 23.1217 0001435 264.2018 95.8670 15.27575319135515
Epoch: Jun 16, 2026 • Age: 13 hours

当前状态

高度 482.6 km
速度 7.63 km/s
星下点 1.79°N, 23.42°W
发射日期 Jan 7, 2024
运行时间 2.4 years
类型 internet

技术详情

分类 Payload
质量 730.00 kg
干质量 700.00 kg
总质量 730.00 kg
长度 0.30 m
直径 4.10 m
跨度 29.00 m
形状 Box + pan
制造商 SPXS
平台类型 Starlink V2M
阶段状态 In Orbit
所有者/国家 SPXS/US

Most Searched